This demonstration page uses our WeatherBlox Daily Observations layout. Learn more.

38.89511, -77.03637

Hourly Observations for September 20, 2017

Temp ( °F °C ) Dew Point ( °F °C ) Humidity (%) Winds ( mph kmh ) Pressure ( in mb ) Visibility ( mi km ) Precip ( " mm )
12:52 am 00:52 Partly Cloudy 72 22.2 66 18.9 82 82 NNW 8 13 29.91 1013 10 16.09344 0 0
1:52 am 01:52 Partly Cloudy 71 21.7 66 18.9 84 84 NNW 7 11 29.91 1013 10 16.09344 0 0
2:52 am 02:52 Mostly Cloudy 73 22.8 65 18.3 76 76 NNW 9 15 29.91 1013 10 16.09344 0 0
3:52 am 03:52 Mostly Cloudy 71 21.7 65 18.3 81 81 NNW 10 17 29.91 1013 10 16.09344 0 0
4:52 am 04:52 Partly Cloudy 71 21.7 64 17.8 79 79 NNW 10 17 29.88 1012 10 16.09344 0 0
5:52 am 05:52 Mostly Cloudy 72 22.2 64 17.8 76 76 NW 12 19 29.91 1013 10 16.09344 0 0
6:52 am 06:52 Mostly Cloudy 71 21.7 64 17.8 79 79 NNW 12 19 29.91 1013 10 16.09344 0 0
7:52 am 07:52 Mostly Cloudy 71 21.7 64 17.8 79 79 NW 9 15 29.94 1014 10 16.09344 0 0
8:52 am 08:52 Mostly Cloudy 73 22.8 64 17.8 74 74 NW 8 13 29.97 1015 10 16.09344 0 0
9:52 am 09:52 Mostly Cloudy 75 23.9 64 17.8 69 69 NNW 9 15 29.97 1015 10 16.09344 0 0
10:52 am 10:52 Mostly Cloudy 77 25 65 18.3 66 66 NNW 12 19 29.97 1015 10 16.09344 0 0
11:52 am 11:52 Partly Cloudy 81 27.2 66 18.9 61 61 NW 12 19 29.94 1014 10 16.09344 0 0
12:52 pm 12:52 Partly Cloudy 85 29.4 64 17.8 50 50 NW 10 17 29.94 1014 10 16.09344 0 0
1:52 pm 13:52 Mostly Sunny 86 30 62 16.7 45 45 NW 7 11 29.91 1013 10 16.09344 0 0
2:52 pm 14:52 Mostly Sunny 87 30.6 63 17.2 45 45 NNW 3 6 29.91 1013 10 16.09344 0 0
3:52 pm 15:52 Mostly Sunny 87 30.6 64 17.8 46 46 NW 13 20 29.91 1013 10 16.09344 0 0
4:52 pm 16:52 Mostly Sunny 87 30.6 63 17.2 45 45 NW 7 11 29.91 1013 10 16.09344 0 0
5:52 pm 17:52 Mostly Sunny 85 29.4 64 17.8 50 50 NW 9 15 29.91 1013 10 16.09344 0 0
6:52 pm 18:52 Partly Cloudy 84 28.9 63 17.2 49 49 NW 9 15 29.91 1013 10 16.09344 0 0
7:52 pm 19:52 Mostly Clear 80 26.7 64 17.8 58 58 NW 7 11 29.94 1014 10 16.09344 0 0
8:52 pm 20:52 Mostly Clear 78 25.6 64 17.8 62 62 N 7 11 29.94 1014 10 16.09344 0 0
9:52 pm 21:52 Mostly Clear 75 23.9 66 18.9 74 74 Calm 29.94 1014 10 16.09344 0 0
10:52 pm 22:52 Mostly Clear 75 23.9 71 21.7 88 88 S 3 6 29.97 1015 10 16.09344 0 0
11:52 pm 23:52 Clear 74 23.3 69 20.6 85 85 ENE 3 6 29.97 1015 10 16.09344 0 0

Powered by AerisWeather